Weather observations for the past three days for
Sisseton, Sisseton Municipal Airport
Imperial (Metric)
Date Time (cdt) Wind (mph) Vis. (mi.) Weather Sky Cond. Temperature (ºF) Relative Humidity Wind Chill (°F) Heat Index (°F) Pressure Precipitation (in)
Air Dwpt 6 hour altimeter (in) sea level (mb) 1 hr 3 hr 6 hr
Max. Min.
15 10:56 Calm 0.00 NULL NULL 78.1 73 85% 81 29.75 1005.5
15 09:56 S 12 0.00 NULL NULL 73.9 71.1 91% 29.76 1006.0
15 08:56 S 5 0.00 NULL NULL 70 68 93% 29.75 1005.4
15 07:56 Calm 0.00 NULL NULL 69.1 66.9 93% 29.77 1006.2
15 06:56 E 15 0.00 NULL NULL 70 68 73.9 69.1 93% 29.74 1005.0 0.18
15 05:56 E 7 0.00 NULL NULL 71.1 68 90% 29.79 1006.3
15 04:56 E 7 0.00 NULL NULL 71.1 69.1 94% 29.74 1004.7 0.04
15 03:56 SE 17 G 21 0.00 NULL NULL 69.1 68 96% 29.72 1004.2 0.14 0.14
15 02:56 E 15 0.00 NULL NULL 73 66.9 81% 29.75 1005.1
15 01:56 S 10 0.00 NULL NULL 73 66 79% 29.77 1005.8
15 00:56 S 6 0.00 NULL NULL 71.1 66 86 71.1 84% 29.81 1007.4
14 23:56 SE 6 0.00 NULL NULL 72 66 82% 29.82 1007.6
14 22:56 SE 5 0.00 NULL NULL 73 66.9 81% 29.84 1008.3
14 21:56 SE 6 0.00 NULL NULL 73.9 66.9 79% 29.84 1008.5
14 20:56 E 5 0.00 NULL NULL 79 66.9 67% 81 29.86 1008.9
14 19:56 E 6 0.00 NULL NULL 82.9 63 51% 84 29.88 1009.6
14 18:56 SE 6 0.00 NULL NULL 86 62.1 90 84.9 45% 87 29.89 1010.0
14 17:56 Calm 0.00 NULL NULL 89.1 63 42% 90 29.9 1010.0
14 16:56 N 3 0.00 NULL NULL 89.1 63 42% 90 29.9 1010.4
14 15:56 NW 6 0.00 NULL NULL 88 64 45% 89 29.92 1011.0
14 14:56 Calm 0.00 NULL NULL 88 66 48% 90 29.92 1011.0
14 13:56 N 10 0.00 NULL NULL 86 66.9 53% 89 29.91 1010.8
14 12:56 NE 6 0.00 NULL NULL 84.9 68 84.9 69.1 57% 88 29.92 1010.9
14 11:56 N 9 0.00 NULL NULL 82.9 66.9 59% 86 29.92 1011.2
14 10:56 N 7 0.00 NULL NULL 81 69.1 67% 84 29.93 1011.2
14 09:56 N 9 0.00 NULL NULL 79 69.1 72% 82 29.93 1011.1
14 08:56 N 12 0.00 NULL NULL 75 69.1 82% 75 29.92 1011.0
14 07:56 N 8 0.00 NULL NULL 71.1 66.9 87% 29.92 1010.9
14 06:56 NW 7 0.00 NULL NULL 69.1 64.9 70 66.9 87% 29.91 1010.7
14 05:56 SW 3 0.00 NULL NULL 70 64 82% 29.91 1010.3
14 04:56 NW 6 0.00 NULL NULL 69.1 64.9 87% 29.91 1010.6
14 03:56 W 3 0.00 NULL NULL 66.9 64.9 93% 29.89 1010.1
14 02:56 W 5 0.00 NULL NULL 68 66 93% 29.88 1009.7
14 01:56 NW 5 0.00 NULL NULL 69.1 66 90% 29.89 1010.1
14 00:56 W 6 0.00 NULL NULL 70 66.9 89.1 70 90% 29.89 1010.1
13 23:56 NE 7 0.00 NULL NULL 73 66 79% 29.91 1010.7
13 22:56 NW 8 0.00 NULL NULL 77 73 88% 78 29.88 1009.8
13 21:56 NW 7 0.00 NULL NULL 78.1 73 85% 81 29.86 1009.2
13 20:56 NW 5 0.00 NULL NULL 82.9 73 72% 89 29.86 1008.8
13 19:56 W 7 0.00 NULL NULL 87.1 71.1 59% 93 29.84 1008.2
13 18:56 SW 9 0.00 NULL NULL 89.1 72 90 82.9 57% 96 29.85 1008.4
13 17:56 S 7 0.00 NULL NULL 89.1 75.9 65% 100 29.85 1008.6
13 16:56 S 8 0.00 NULL NULL 86 79 80% 100 29.87 1009.4
13 15:56 SE 12 0.00 NULL NULL 84 77 80% 94 29.87 1009.5
13 14:56 SE 13 0.00 NULL NULL 84.9 77 77% 95 29.89 1010.0
13 13:56 S 13 0.00 NULL NULL 84.9 75.9 75% 94 29.89 1009.9
13 12:56 S 13 0.00 NULL NULL 82.9 75 84 69.1 77% 90 29.91 1010.4
13 11:56 S 16 0.00 NULL NULL 81 73 77% 86 29.91 1010.7
13 10:56 S 14 0.00 NULL NULL 75.9 69.1 79% 77 29.92 1011.2
13 09:56 SE 10 0.00 NULL NULL 73.9 70 88% 29.93 1011.4
13 08:56 S 13 0.00 NULL NULL 73 69.1 87% 29.93 1011.3
13 07:56 S 12 0.00 NULL NULL 70 66.9 90% 29.92 1011.1
13 06:56 SE 13 0.00 NULL NULL 69.1 66 75 68 90% 29.92 1010.8 0.34
13 05:56 S 12 0.00 NULL NULL 69.1 66 90% 29.92 1010.9
13 04:56 S 12 0.00 NULL NULL 68 66 93% 29.89 1009.9
13 03:56 E 10 0.00 NULL NULL 69.1 66.9 93% 29.91 1010.6 0.15 0.34
13 02:56 N 24 G 31 0.00 Breezy NULL 69.1 66.9 93% 29.97 1012.5 0.19
13 01:56 SE 9 0.00 NULL NULL 73.9 71.1 91% 29.92 1010.7
13 00:56 S 8 0.00 NULL NULL 73.9 70 88 73.9 88% 29.93 1011.1
12 23:56 S 7 0.00 NULL NULL 75 71.1 88% 75 29.93 1011.0
12 22:56 SE 7 0.00 NULL NULL 78.1 70 76% 80 29.93 1011.3
12 21:56 SE 10 0.00 NULL NULL 79 70 74% 82 29.92 1010.8
12 20:56 SE 7 0.00 NULL NULL 82.9 69.1 63% 87 29.93 1011.2
12 19:56 S 9 0.00 NULL NULL 86 69.1 57% 90 29.91 1010.8
12 18:56 S 14 0.00 NULL NULL 88 68 90 84 52% 92 29.9 1010.5
12 17:56 S 15 G 23 0.00 NULL NULL 89.1 68 50% 93 29.9 1010.6
12 16:56 S 17 0.00 NULL NULL 90 68 48% 94 29.9 1010.6
12 15:56 S 17 G 26 0.00 NULL NULL 89.1 68 50% 93 29.92 1011.2
12 14:56 S 21 G 26 0.00 Breezy NULL 88 68 52% 92 29.92 1011.1
12 13:56 S 20 G 29 0.00 NULL NULL 87.1 68 53% 91 29.93 1011.5
12 12:56 S 21 G 28 0.00 Breezy NULL 86 66.9 86 64.9 53% 89 29.94 1011.9
12 11:56 S 18 G 30 0.00 NULL NULL 84 66 55% 86 29.95 1012.2
Date Time (cdt) Wind (mph) Vis. (mi.) Weather Sky Cond. Air Dwpt Max. Min. Relative Humidity Wind Chill (°F) Heat Index (°F) altimeter (in) sea level (mb) 1 hr 3 hr 6 hr
6 hour
Temperature (ºF) Pressure Precipitation (in)